Satellite-Ground Cal/Val Site Overpasses Predictions

Prediction of Satellite NPP Overpassing Cal/Val Site: Antarctic Dome C

Ground Cal/Val Site Location: Latitude: -75.10, Longitude: 123.35; Satellite-Ground Site NADIR distance within 100 km.

Table of predicted overpasses for the next 14.0 days since TLE Epoch: 3/29/2019
Interval Starting Time Ending Time Minimum Distance Time Minimum Distance (km)
1 03/29/2019 15:00:53 03/29/2019 15:01:17 03/29/2019 15:01:05 57.59
2 03/30/2019 14:42:03 03/30/2019 14:42:28 03/30/2019 14:42:16 51.64
3 03/31/2019 07:43:44 03/31/2019 07:44:05 03/31/2019 07:43:54 70.06
4 04/01/2019 07:24:50 04/01/2019 07:25:17 04/01/2019 07:25:04 37.99
5 04/03/2019 15:07:15 04/03/2019 15:07:23 04/03/2019 15:07:19 94.92
6 04/04/2019 14:48:14 04/04/2019 14:48:43 04/04/2019 14:48:29 16.35
7 04/06/2019 07:31:02 04/06/2019 07:31:32 04/06/2019 07:31:17 1.62
8 04/09/2019 14:54:27 04/09/2019 14:54:55 04/09/2019 14:54:41 19.72
9 04/10/2019 14:35:45 04/10/2019 14:35:58 04/10/2019 14:35:52 87.27
10 04/11/2019 07:37:16 04/11/2019 07:37:44 04/11/2019 07:37:30 34.03


NCC Satellite Cal/Val Overpasses Prediction Service
